sat.trackr.live / text

‹ back to catalog

ONEWEB-0506

NORAD 54124 · 2022-138M

PAYLOAD ACTIVE UNKNOWN

§ Identity

Operator
Country
UK
Launch date
2022-10-22
Launch site
SRILR
Launch vehicle
Mass (kg)
RCS (m²)

Purposes: comms

External: N2YO · Heavens-Above · Gunter

§ Orbital elements

Epoch: 2026-05-24T23:25:02.008416Z

Period
109.11 min
Inclination
87.9160°
Eccentricity
0.0001707
Mean motion
13.19725509 rev/d
Perigee alt
1,184.5 km
Apogee alt
1,187.1 km
Semi-major
7,563.9 km
B*
-1.2180e-4
RAAN
309.5892°
Arg perigee
85.3244°
Mean anomaly
274.8083°
Rev number
17,374

§ Raw data

ONEWEB-05061 54124U 22138M   26144.97571769 -.00000036  00000+0 -12180-3 0  99952 54124  87.9160 309.5892 0001707  85.3244 274.8083 13.19725509173742

JSON: /api/v1/satellites/54124 · /tle

For live sub-satellite position, see the globe view (requires WebGL).

§ Visibility from observer

Set your observer location to see the next 7 days of passes ≥ 10°. The values pass through the URL so the page stays shareable.

No JS? Fill the form by hand. The geolocation button needs JavaScript.